PTK101 UHSS-UHHH

Flight info

Callsign PTK101
Flight time N/A
Altitude 22000
Route KELUL1A KELUL DCT NOPSO DCT LISOL DCT TUTIB DCT UGLEV DCT LEPRO DCT PAREN DCT MOGIS DCT AGAPO DCT NEBES NEBES6D
Aircraft YK40/M-SDFIRWY/H

Departure

Time 2026-05-04 07:02
Airport Yuzhno-Sakhalinsk International Airport (UHSS)

Arrival

Time N/A
Airport Khabarovsk Novy Airport (UHHH)
Time Latitude Longitude Altitude Speed Heading
2026-05-04 06:55 46.88412 142.72172 61 ft 0 kts 271°
2026-05-04 06:57 46.88352 142.72087 60 ft 11 kts 182°
2026-05-04 06:58 46.88236 142.72086 60 ft 18 kts 181°
2026-05-04 06:58 46.88114 142.72081 59 ft 16 kts 181°
2026-05-04 06:58 46.88014 142.72073 57 ft 12 kts 211°
2026-05-04 06:58 46.87981 142.71971 54 ft 10 kts 249°
2026-05-04 06:59 46.87954 142.71867 49 ft 11 kts 249°
2026-05-04 06:59 46.87925 142.71767 47 ft 9 kts 240°
2026-05-04 06:59 46.87874 142.71727 46 ft 7 kts 181°
2026-05-04 06:59 46.87833 142.71725 46 ft 4 kts 181°
2026-05-04 07:01 46.88776 142.71741 167 ft 110 kts
2026-05-04 07:01 46.89556 142.71736 488 ft 115 kts
2026-05-04 07:02 46.90319 142.71687 1056 ft 99 kts 359°
2026-05-04 07:02 46.90993 142.71493 1190 ft 116 kts 355°
2026-05-04 07:02 46.91861 142.71143 1232 ft 143 kts 348°
2026-05-04 07:02 46.92880 142.70725 1562 ft 154 kts 351°
2026-05-04 07:03 46.93916 142.70378 2030 ft 156 kts 352°
2026-05-04 07:03 46.94973 142.70003 2508 ft 158 kts 352°
2026-05-04 07:03 46.96049 142.69586 2892 ft 162 kts 354°
2026-05-04 07:03 46.97145 142.69188 3286 ft 165 kts 354°
2026-05-04 07:04 46.98265 142.68817 3702 ft 165 kts 356°
2026-05-04 07:04 46.99382 142.68481 4112 ft 166 kts 356°
2026-05-04 07:04 47.00510 142.68121 4536 ft 167 kts 356°
2026-05-04 07:04 47.01652 142.67747 4962 ft 168 kts 356°
2026-05-04 07:05 47.02781 142.67369 5382 ft 168 kts 356°
2026-05-04 07:05 47.03921 142.66981 5808 ft 168 kts 356°
2026-05-04 07:05 47.05049 142.66597 6223 ft 167 kts 356°
2026-05-04 07:05 47.06179 142.66208 6639 ft 167 kts 356°
2026-05-04 07:06 47.08399 142.65231 7430 ft 175 kts 335°
2026-05-04 07:06 47.09308 142.64002 7820 ft 184 kts 320°
2026-05-04 07:06 47.10137 142.62570 8185 ft 184 kts 321°
2026-05-04 07:07 47.11008 142.61156 8505 ft 187 kts 321°
2026-05-04 07:08 47.17251 142.51254 10421 ft 187 kts 319°
2026-05-04 07:09 47.18140 142.49835 10610 ft 187 kts 318°
2026-05-04 07:09 47.19026 142.48430 10779 ft 188 kts 319°
2026-05-04 07:09 47.19928 142.47008 10927 ft 193 kts 319°
2026-05-04 07:09 47.20850 142.45561 11124 ft 197 kts 319°
2026-05-04 07:10 47.21795 142.44083 11350 ft 200 kts 319°
2026-05-04 07:10 47.22761 142.42584 11590 ft 202 kts 318°
2026-05-04 07:12 47.27496 142.30109 13306 ft 211 kts 284°
2026-05-04 07:12 47.27806 142.27986 13555 ft 211 kts 284°
2026-05-04 07:12 47.28121 142.25900 13772 ft 211 kts 285°
2026-05-04 07:12 47.28442 142.23784 13999 ft 211 kts 284°
2026-05-04 07:13 47.28757 142.21698 14213 ft 210 kts 284°
2026-05-04 07:13 47.29071 142.19606 14443 ft 210 kts 284°
2026-05-04 07:13 47.29390 142.17505 14678 ft 210 kts 284°
2026-05-04 07:14 47.30729 142.09123 15548 ft 210 kts 284°
2026-05-04 07:14 47.31067 142.07053 15763 ft 210 kts 284°
2026-05-04 07:15 47.31385 142.04965 15980 ft 209 kts 281°
2026-05-04 07:15 47.31645 142.02869 16179 ft 209 kts 281°
2026-05-04 07:15 47.31913 142.00761 16376 ft 209 kts 281°
2026-05-04 07:15 47.32182 141.98674 16592 ft 208 kts 282°
2026-05-04 07:16 47.32454 141.96582 16782 ft 208 kts 281°
2026-05-04 07:16 47.32731 141.94490 16976 ft 207 kts 281°
2026-05-04 07:16 47.33007 141.92418 17168 ft 207 kts 281°
2026-05-04 07:16 47.33283 141.90337 17360 ft 207 kts 281°
2026-05-04 07:17 47.33563 141.88257 17543 ft 207 kts 281°
2026-05-04 07:17 47.33850 141.86163 17723 ft 208 kts 281°
2026-05-04 07:17 47.34143 141.84094 17904 ft 208 kts 281°
2026-05-04 07:17 47.34450 141.82007 18093 ft 208 kts 281°
2026-05-04 07:18 47.34755 141.79944 18260 ft 208 kts 281°
2026-05-04 07:18 47.35062 141.77849 18428 ft 208 kts 281°
2026-05-04 07:18 47.35361 141.75786 18594 ft 208 kts 282°
2026-05-04 07:18 47.35664 141.73704 18769 ft 207 kts 281°
2026-05-04 07:19 47.35971 141.71619 18945 ft 207 kts 281°
2026-05-04 07:19 47.36273 141.69571 19114 ft 207 kts 281°
2026-05-04 07:19 47.36582 141.67500 19285 ft 207 kts 281°
2026-05-04 07:19 47.36887 141.65424 19449 ft 206 kts 279°
2026-05-04 07:20 47.37122 141.63324 19517 ft 211 kts 278°
2026-05-04 07:20 47.37360 141.61185 19589 ft 215 kts 278°
2026-05-04 07:20 47.37608 141.59009 19686 ft 218 kts 278°
2026-05-04 07:20 47.37865 141.56773 19794 ft 220 kts 278°
2026-05-04 07:22 47.39734 141.41093 20716 ft 223 kts 278°
2026-05-04 07:22 47.40007 141.38850 20840 ft 223 kts 278°
2026-05-04 07:23 47.40281 141.36612 20961 ft 223 kts 278°
2026-05-04 07:23 47.40559 141.34346 21094 ft 224 kts 277°
2026-05-04 07:23 47.40835 141.32103 21219 ft 224 kts 277°
2026-05-04 07:23 47.41117 141.29829 21352 ft 223 kts 277°
2026-05-04 07:24 47.41395 141.27583 21480 ft 223 kts 277°
2026-05-04 07:24 47.41680 141.25333 21610 ft 223 kts 277°
2026-05-04 07:24 47.41967 141.23100 21715 ft 225 kts 277°
2026-05-04 07:24 47.42263 141.20798 21691 ft 231 kts 277°
2026-05-04 07:25 47.42565 141.18422 21666 ft 237 kts 277°
2026-05-04 07:26 47.44727 141.00792 21666 ft 260 kts 277°
2026-05-04 07:27 47.45037 140.98148 21670 ft 261 kts 277°
2026-05-04 07:27 47.45345 140.95506 21669 ft 263 kts 277°
2026-05-04 07:27 47.45656 140.92845 21672 ft 264 kts 277°
2026-05-04 07:27 47.45972 140.90163 21670 ft 265 kts 277°
2026-05-04 07:28 47.46283 140.87501 21662 ft 266 kts 277°
2026-05-04 07:28 47.46595 140.84807 21666 ft 267 kts 277°
2026-05-04 07:28 47.46904 140.82124 21684 ft 267 kts 277°
2026-05-04 07:28 47.47218 140.79411 21691 ft 267 kts 277°
2026-05-04 07:29 47.47528 140.76726 21682 ft 268 kts 277°
2026-05-04 07:29 47.47842 140.74005 21694 ft 268 kts 277°
2026-05-04 07:29 47.48155 140.71291 21696 ft 268 kts 277°
2026-05-04 07:29 47.48468 140.68574 21696 ft 268 kts 277°
2026-05-04 07:30 47.48780 140.65869 21688 ft 269 kts 277°
2026-05-04 07:30 47.49091 140.63162 21687 ft 269 kts 277°
2026-05-04 07:30 47.49406 140.60413 21698 ft 269 kts 277°
2026-05-04 07:30 47.49715 140.57706 21695 ft 269 kts 277°
2026-05-04 07:31 47.50026 140.54984 21701 ft 269 kts 277°
2026-05-04 07:31 47.50338 140.52271 21702 ft 269 kts 277°
2026-05-04 07:33 47.52515 140.33241 21739 ft 268 kts 277°
2026-05-04 07:33 47.52827 140.30510 21739 ft 268 kts 277°
2026-05-04 07:33 47.53133 140.27805 21728 ft 269 kts 277°
2026-05-04 07:33 47.53443 140.25069 21740 ft 269 kts 277°
2026-05-04 07:34 47.53746 140.22376 21754 ft 268 kts 277°
2026-05-04 07:34 47.54053 140.19667 21737 ft 268 kts 277°
2026-05-04 07:34 47.54363 140.16927 21742 ft 268 kts 277°
2026-05-04 07:34 47.54668 140.14212 21744 ft 268 kts 277°
2026-05-04 07:35 47.54971 140.11508 21744 ft 268 kts 277°
2026-05-04 07:35 47.55275 140.08781 21754 ft 268 kts 277°
2026-05-04 07:35 47.55577 140.06074 21754 ft 268 kts 277°
2026-05-04 07:35 47.55879 140.03375 21757 ft 268 kts 277°
2026-05-04 07:36 47.56184 140.00645 21759 ft 267 kts 277°
2026-05-04 07:36 47.56486 139.97954 21761 ft 267 kts 277°
2026-05-04 07:38 47.58617 139.78954 21752 ft 268 kts 277°
2026-05-04 07:38 47.58919 139.76257 21750 ft 267 kts 277°
2026-05-04 07:38 47.59223 139.73528 21743 ft 267 kts 277°
2026-05-04 07:38 47.59522 139.70834 21747 ft 267 kts 277°
2026-05-04 07:39 47.59824 139.68112 21737 ft 267 kts 277°
2026-05-04 07:39 47.60124 139.65413 21743 ft 267 kts 277°
2026-05-04 07:39 47.60422 139.62720 21743 ft 267 kts 277°
2026-05-04 07:39 47.60725 139.59999 21733 ft 266 kts 277°
2026-05-04 07:40 47.61021 139.57335 21738 ft 266 kts 277°
2026-05-04 07:40 47.61322 139.54620 21751 ft 266 kts 277°
2026-05-04 07:40 47.61625 139.51910 21761 ft 266 kts 277°
2026-05-04 07:40 47.61924 139.49236 21746 ft 266 kts 277°
2026-05-04 07:41 47.62225 139.46527 21744 ft 266 kts 277°
2026-05-04 07:41 47.62526 139.43811 21741 ft 266 kts 277°
2026-05-04 07:41 47.62823 139.41128 21727 ft 266 kts 277°
2026-05-04 07:41 47.63123 139.38409 21726 ft 266 kts 277°
2026-05-04 07:42 47.63417 139.35739 21738 ft 265 kts 277°
2026-05-04 07:42 47.63715 139.33028 21741 ft 265 kts 276°
2026-05-04 07:42 47.64007 139.30344 21747 ft 266 kts 276°
2026-05-04 07:42 47.64298 139.27658 21740 ft 266 kts 277°
2026-05-04 07:43 47.64595 139.24930 21733 ft 266 kts 277°
2026-05-04 07:43 47.64884 139.22261 21745 ft 266 kts 276°
2026-05-04 07:43 47.65180 139.19533 21704 ft 266 kts 276°
2026-05-04 07:43 47.65474 139.16820 21712 ft 266 kts 277°
2026-05-04 07:44 47.65765 139.14148 21725 ft 266 kts 277°
2026-05-04 07:44 47.66058 139.11447 21740 ft 266 kts 277°
2026-05-04 07:44 47.66352 139.08739 21724 ft 266 kts 277°
2026-05-04 07:44 47.66645 139.06018 21725 ft 266 kts 277°
2026-05-04 07:45 47.66939 139.03311 21722 ft 266 kts 277°
2026-05-04 07:45 47.67232 139.00606 21718 ft 266 kts 277°
2026-05-04 07:45 47.67526 138.97884 21710 ft 266 kts 277°
2026-05-04 07:45 47.67817 138.95175 21695 ft 267 kts 277°
2026-05-04 07:46 47.68103 138.92493 21705 ft 266 kts 277°
2026-05-04 07:46 47.68393 138.89764 21698 ft 266 kts 277°
2026-05-04 07:46 47.68677 138.87074 21689 ft 267 kts 277°
2026-05-04 07:46 47.68966 138.84346 21692 ft 266 kts 277°
2026-05-04 07:47 47.69249 138.81657 21689 ft 266 kts 277°
2026-05-04 07:47 47.69534 138.78935 21680 ft 266 kts 277°
2026-05-04 07:47 47.69817 138.76218 21679 ft 266 kts 277°
2026-05-04 07:49 47.71785 138.57332 21692 ft 265 kts 277°
2026-05-04 07:49 47.72068 138.54613 21697 ft 265 kts 277°
2026-05-04 07:49 47.72346 138.51941 21702 ft 264 kts 277°
2026-05-04 07:50 47.72626 138.49262 21709 ft 264 kts 277°
2026-05-04 07:50 47.72909 138.46555 21708 ft 264 kts 277°
2026-05-04 07:50 47.73187 138.43870 21712 ft 263 kts 277°
2026-05-04 07:50 47.73463 138.41177 21712 ft 263 kts 277°
2026-05-04 07:51 47.73736 138.38507 21700 ft 264 kts 277°
2026-05-04 07:51 47.74008 138.35840 21702 ft 263 kts 277°
2026-05-04 07:51 47.74285 138.33122 21699 ft 263 kts 276°
2026-05-04 07:51 47.74555 138.30449 21705 ft 263 kts 276°
2026-05-04 07:52 47.74824 138.27771 21695 ft 264 kts 276°
2026-05-04 07:52 47.75096 138.25060 21691 ft 264 kts 276°
2026-05-04 07:52 47.75365 138.22376 21696 ft 264 kts 276°
2026-05-04 07:52 47.75639 138.19664 21687 ft 264 kts 276°
2026-05-04 07:53 47.75909 138.16983 21687 ft 264 kts 276°
2026-05-04 07:54 47.77795 137.98164 21705 ft 263 kts 277°
2026-05-04 07:55 47.78057 137.95485 21705 ft 263 kts 277°
2026-05-04 07:55 47.78317 137.92815 21708 ft 263 kts 277°
2026-05-04 07:55 47.78582 137.90103 21707 ft 263 kts 277°
2026-05-04 07:55 47.78844 137.87428 21710 ft 263 kts 277°
2026-05-04 07:56 47.79119 137.84767 21715 ft 263 kts 277°
2026-05-04 07:56 47.79401 137.82063 21682 ft 264 kts 277°
2026-05-04 07:56 47.79670 137.79373 21494 ft 263 kts 277°
2026-05-04 07:56 47.79926 137.76721 21231 ft 259 kts 277°
2026-05-04 07:57 47.80169 137.74089 20953 ft 255 kts 277°
2026-05-04 07:57 47.80402 137.71492 20672 ft 253 kts 277°
2026-05-04 07:57 47.80620 137.68930 20392 ft 251 kts 277°
2026-05-04 07:57 47.80831 137.66341 20101 ft 250 kts 277°
2026-05-04 07:58 47.81029 137.63794 19813 ft 249 kts 277°
2026-05-04 07:58 47.81216 137.61261 19523 ft 249 kts 277°
2026-05-04 07:58 47.81394 137.58694 19230 ft 248 kts 277°
2026-05-04 07:58 47.81559 137.56174 18942 ft 248 kts 277°
2026-05-04 07:59 47.81715 137.53616 18650 ft 247 kts 277°
2026-05-04 07:59 47.81862 137.51090 18362 ft 247 kts 277°
2026-05-04 07:59 47.82003 137.48560 18076 ft 247 kts 277°
2026-05-04 07:59 47.82211 137.46011 17805 ft 245 kts 284°
2026-05-04 08:00 47.82550 137.43529 17535 ft 250 kts 283°
2026-05-04 08:00 47.82883 137.40962 17275 ft 255 kts 283°
2026-05-04 08:00 47.83212 137.38351 17029 ft 258 kts 283°
2026-05-04 08:02 47.85500 137.19774 15525 ft 264 kts 282°
2026-05-04 08:02 47.85832 137.17081 15324 ft 264 kts 282°
2026-05-04 08:02 47.86161 137.14409 15124 ft 264 kts 282°
2026-05-04 08:03 47.86492 137.11732 14923 ft 264 kts 282°
2026-05-04 08:03 47.86827 137.09047 14728 ft 264 kts 282°
2026-05-04 08:03 47.87164 137.06361 14529 ft 264 kts 282°
2026-05-04 08:03 47.87506 137.03662 14328 ft 264 kts 282°
2026-05-04 08:04 47.87837 137.00995 14139 ft 264 kts 281°
2026-05-04 08:04 47.88114 136.98296 13948 ft 264 kts 281°
2026-05-04 08:04 47.88393 136.95624 13757 ft 263 kts 281°
2026-05-04 08:04 47.88679 136.92931 13564 ft 263 kts 281°
2026-05-04 08:05 47.88961 136.90243 13376 ft 263 kts 281°
2026-05-04 08:05 47.89240 136.87561 13188 ft 262 kts 281°
2026-05-04 08:05 47.89515 136.84888 13002 ft 262 kts 281°
2026-05-04 08:05 47.89785 136.82228 12818 ft 261 kts 281°
2026-05-04 08:06 47.90054 136.79568 12639 ft 260 kts 281°
2026-05-04 08:06 47.90321 136.76907 12512 ft 258 kts 281°
2026-05-04 08:06 47.90586 136.74269 12390 ft 256 kts 281°
2026-05-04 08:06 47.90844 136.71678 12265 ft 254 kts 281°
2026-05-04 08:08 47.92606 136.53683 11372 ft 249 kts 281°
2026-05-04 08:08 47.92852 136.51109 11244 ft 249 kts 281°
2026-05-04 08:10 47.94731 136.30800 10249 ft 247 kts 280°
2026-05-04 08:11 47.94964 136.28273 10127 ft 246 kts 281°
2026-05-04 08:11 47.95426 136.23248 9889 ft 245 kts 281°
2026-05-04 08:11 47.95657 136.20732 9772 ft 245 kts 281°
2026-05-04 08:12 47.95886 136.18210 9659 ft 245 kts 281°
2026-05-04 08:12 47.96111 136.15694 9548 ft 244 kts 280°
2026-05-04 08:12 47.96294 136.13184 9443 ft 244 kts 279°
2026-05-04 08:12 47.96479 136.10664 9328 ft 243 kts 279°
2026-05-04 08:13 47.96670 136.08166 9209 ft 243 kts 279°
2026-05-04 08:13 47.96867 136.05667 9098 ft 243 kts 280°
2026-05-04 08:13 47.97065 136.03191 8985 ft 242 kts 280°
2026-05-04 08:13 47.97266 136.00690 8874 ft 242 kts 280°
2026-05-04 08:14 47.97467 135.98195 8759 ft 242 kts 280°
2026-05-04 08:14 47.97666 135.95715 8641 ft 242 kts 280°
2026-05-04 08:14 47.97868 135.93228 8529 ft 242 kts 280°
2026-05-04 08:16 47.99153 135.75911 7758 ft 239 kts 279°
2026-05-04 08:16 47.99319 135.73456 7645 ft 239 kts 279°
2026-05-04 08:16 47.99486 135.70990 7535 ft 239 kts 279°
2026-05-04 08:17 47.99655 135.68518 7423 ft 239 kts 279°
2026-05-04 08:17 47.99825 135.66054 7313 ft 238 kts 279°
2026-05-04 08:17 48.00000 135.63597 7205 ft 238 kts 279°
2026-05-04 08:17 48.00176 135.61148 7099 ft 238 kts 279°
2026-05-04 08:19 48.01622 135.44818 7090 ft 221 kts 281°
2026-05-04 08:19 48.01846 135.42543 7088 ft 221 kts 281°
2026-05-04 08:20 48.02071 135.40269 7088 ft 220 kts 281°
2026-05-04 08:20 48.02295 135.38013 7088 ft 220 kts 281°
2026-05-04 08:20 48.02520 135.35759 7088 ft 220 kts 281°
2026-05-04 08:20 48.02747 135.33505 7088 ft 220 kts 281°
2026-05-04 08:21 48.02974 135.31249 7087 ft 219 kts 281°
2026-05-04 08:21 48.03197 135.29019 7087 ft 219 kts 281°
2026-05-04 08:21 48.03422 135.26758 7089 ft 219 kts 281°
2026-05-04 08:21 48.03648 135.24512 7086 ft 219 kts 281°
2026-05-04 08:22 48.03876 135.22264 7088 ft 219 kts 281°
2026-05-04 08:22 48.04104 135.20044 7088 ft 219 kts 281°
2026-05-04 08:24 48.05934 135.04069 6777 ft 226 kts 283°
2026-05-04 08:24 48.06248 135.01785 6731 ft 224 kts 287°
2026-05-04 08:24 48.06986 134.99771 6712 ft 220 kts 313°
2026-05-04 08:24 48.08122 134.98276 6674 ft 219 kts 321°
2026-05-04 08:25 48.09315 134.96832 6614 ft 221 kts 320°
2026-05-04 08:25 48.10498 134.95369 6529 ft 223 kts 320°
2026-05-04 08:25 48.11701 134.93870 6430 ft 226 kts 320°
2026-05-04 08:25 48.12856 134.92430 6344 ft 227 kts 320°
2026-05-04 08:26 48.14068 134.90916 6258 ft 228 kts 320°
2026-05-04 08:27 48.22610 134.81133 5687 ft 218 kts 354°
2026-05-04 08:28 48.24088 134.81517 5631 ft 215 kts 22°
2026-05-04 08:28 48.25352 134.82687 5550 ft 214 kts 34°
2026-05-04 08:28 48.26507 134.84068 5437 ft 213 kts 36°
2026-05-04 08:28 48.27659 134.85492 5316 ft 212 kts 38°
2026-05-04 08:29 48.28774 134.86912 5204 ft 211 kts 37°
2026-05-04 08:29 48.29895 134.88318 5090 ft 210 kts 37°
2026-05-04 08:29 48.30999 134.89767 4980 ft 210 kts 39°
2026-05-04 08:31 48.37786 134.98836 3454 ft 164 kts 39°
2026-05-04 08:33 48.43194 135.06226 2288 ft 139 kts 39°
2026-05-04 08:33 48.43943 135.07158 2176 ft 141 kts 37°
2026-05-04 08:35 48.48675 135.13463 987 ft 128 kts 39°
2026-05-04 08:35 48.49335 135.14389 810 ft 131 kts 40°
2026-05-04 08:35 48.50001 135.15289 651 ft 125 kts 39°
2026-05-04 08:35 48.50625 135.16133 477 ft 120 kts 40°